Reflectivity
-20 -20 -20 -20 -20 -20 -20 -20 -20 -20 -20 -20 -20 -20 -20 -20 -20 -20 -20 -20 -20 -20 -20 -20 -2 -12 -11 9 12 -1 -20 -20 -20 -20 -20 -20 -20 -20 -20 -20 -20 -20 -20 -20 -20 -20 -20 -20 -20
-20 -20 -20 -20 -20 -20 -20 -20 -20 -20 -20 -20 -20 -20 -20 -20 -20 -20 -20 -20 -20 -20 -20 2 15 -20 3 15 16 -14 -20 -20 -20 -20 -20 -20 -20 -20 -20 -20 -20 -20 -20 -20 -20 -20 -20 -20 -20
-20 -20 -20 -20 -20 -20 -20 -20 -20 -20 -20 -20 -20 -20 -20 -20 -20 -20 -20 -20 -20 -20 -20 -12 12 -6 5 15 -1 -20 -20 -20 -20 -20 -20 -20 -20 -20 -20 -20 -20 -20 -20 -20 -20 -20 -20 -20 -20
-20 -20 -20 -20 -20 -20 -20 -20 -20 -20 -20 -20 -20 -20 -20 -20 -20 -20 -20 -20 -20 -19 -14 -9 13 -13 13 12 -20 -20 -20 -20 -20 -20 -20 -20 -20 -20 -20 -20 -20 -20 -20 -20 -20 -20 -20 -20 1
-20 -20 -20 -20 -20 -20 -20 -20 -20 -20 -20 -20 -20 -20 -20 -20 -19 -20 -2 -17 -20 16 2 18 -13 -3 14 11 -20 -20 -20 -20 -20 -20 -20 -20 -20 -20 -20 -20 -20 -20 -20 -20 -20 -20 -20 -20 -5
-20 -20 -20 -20 -20 -20 -20 -20 -20 -20 -20 -20 -20 -20 -20 -14 -12 14 8 7 -20 10 5 14 11 2 13 -3 -20 -20 -20 -20 -20 -20 -20 -20 -20 -20 -20 -20 -20 -20 -20 -20 -20 -20 -20 -20 -20
-20 -20 -20 -20 -20 -20 -20 -20 -20 -20 -20 -20 -20 -20 -20 -20 -20 10 14 7 2 12 13 9 1 4 12 -20 -17 -20 -20 -10 -20 -20 -20 -20 -20 -20 -20 -20 -20 -20 -20 -20 -20 -20 -20 -20 -20
-20 -20 -20 -20 -20 -20 -20 -20 -20 -20 -20 -20 -20 -20 -20 -20 -20 -20 15 15 14 16 10 12 9 7 -20 -19 -8 -20 -20 -5 -3 -5 -20 -20 -20 -20 -20 -20 -20 -20 -20 -20 -20 -20 -20 -20 -20
-20 -20 -20 -20 -20 -20 -20 -20 -20 -20 -20 -20 -20 -20 -20 -20 -20 -11 18 19 23 13 6 -20 8 1 -20 -20 -13 -4 2 -4 -8 -20 -20 -20 -20 -20 -20 -20 -20 -20 -20 -20 -20 -20 -20 -20 -20
-20 -20 -20 -20 -20 -20 -20 -20 -20 -20 -20 -20 -20 -20 -20 -20 -20 -16 16 21 24 12 16 0 11 -2 -19 -20 -20 -20 -12 -20 -20 -20 -20 -20 -20 -20 -20 -20 -20 -20 -20 -20 -20 -20 -20 -20 -20
-20 -20 -20 -20 -20 -20 -20 -20 -20 -20 -20 -20 -20 -20 -20 -20 -20 -20 -20 -10 20 1 14 -2 15 9 -8 -20 -20 -20 -20 -20 -20 -20 -20 -20 -20 -20 -20 -20 -20 -20 -20 -20 -20 -20 -20 -20 -20
-20 -20 -20 -20 -20 -20 -20 -20 -20 -20 -20 -20 -20 -20 -20 -20 -20 -20 -20 10 25 16 21 18 11 11 -11 -20 -20 -20 -20 -20 -20 -20 -20 -20 -20 -20 -20 -20 -20 -20 -20 -20 -20 -20 -20 -20 -20
-20 -20 -20 -20 -20 -20 -20 -20 -20 -20 -20 -20 -20 -20 -20 -20 -20 -20 -20 -12 -10 32 6 24 21 9 -12 -20 -20 -20 -20 -20 -20 -20 -20 -20 -20 -20 -20 -20 -20 -20 -20 -20 -20 -20 -20 -20 -20
-20 -20 -20 -20 -20 -20 -20 -20 -20 -20 -20 -20 -20 -20 -20 -20 -20 -20 -20 -20 -17 12 28 31 5 13 4 -20 -20 -20 -20 -20 -20 -20 -20 -20 -20 -20 -20 -20 -20 -20 -20 -20 -20 -20 -20 -20 -20
-20 -20 -20 -20 -20 -20 -20 -20 -20 -20 -20 -20 -20 -20 -20 -20 -20 -20 -20 -20 -20 0 26 22 28 10 8 -20 -20 -20 -20 -20 -20 -20 -20 -20 -20 -20 -20 -20 -20 -20 -20 -20 -20 -20 -20 -20 -20
-20 -20 -20 -20 -20 -20 -20 -20 -20 -20 -20 -20 -20 -20 -20 -20 -20 -20 -20 -20 -20 -20 8 36 8 -2 7 -2 -20 -20 -20 -20 -20 -20 -20 -20 -20 -20 -20 -20 -20 -20 -20 -20 -20 -20 -20 -20 -20
-20 -20 -20 -20 -20 -20 -20 -20 -20 -20 -20 -20 -20 -20 -20 -20 -20 -20 -20 -20 -20 -20 3 -1 34 30 10 7 -14 -20 -20 -20 -20 -20 -20 -20 -20 -20 -20 -20 -20 -20 -20 -20 -20 -20 -20 -20 -20
-20 -20 -20 -20 -20 -20 -20 -20 -20 -20 -20 -20 -20 -20 -20 -20 -20 -20 -20 -20 -20 -20 -6 -10 26 44 34 26 9 -20 -20 -20 -20 -20 -20 -20 -20 -20 -20 -20 -20 -20 -20 -20 -20 -20 -20 -20 -20
-20 -20 -20 -20 -20 -20 -20 -20 -20 -20 -20 -20 -20 -20 -20 -20 -20 -20 -20 -20 -20 -15 -20 12 -8 12 35 45 33 -12 -20 -20 -20 -20 -20 -20 -20 -20 -20 -20 -20 -20 -20 -20 -20 -20 -20 -20 -20
-20 -20 -20 -20 -20 -20 -20 -20 -20 -20 -20 -20 -20 -20 -20 -20 -20 -20 -20 -20 -20 -11 -13 -20 19 10 31 42 44 19 8 8 3 -4 -20 -20 -20 -20 -20 -20 -20 -20 -20 -20 -20 -20 -20 -20 -20
-20 -20 -20 -20 -20 -20 -20 -20 -20 -20 -20 -20 -20 -20 -20 -20 -20 -20 -20 -20 -20 -20 -18 -20 -2 -12 27 41 43 41 28 18 11 -6 -20 -20 -19 -18 -20 -20 -20 -20 -20 -20 -20 -20 -20 -20 -20
-20 -20 -20 -20 -20 -20 -20 -20 -20 -20 -20 -20 -20 -20 -20 -20 -20 -20 -20 -20 -20 -20 -20 -5 -20 1 25 33 37 42 23 14 10 10 15 -20 -20 -20 -20 -20 -20 -20 -20 -20 -20 -20 -20 -20 -20
-20 -20 -20 -20 -20 -20 -20 -20 -20 -20 -20 -20 -20 -20 -20 -20 -20 -20 -20 -20 -20 -20 -20 -20 -20 -15 -18 9 37 42 24 18 26 27 16 -2 -14 -20 -20 -20 -20 -20 -20 -20 -20 -20 -20 -20 -1
-20 -20 -20 -20 -20 -20 -20 -20 -20 -20 -20 -20 -20 -20 -20 -20 -20 -20 -20 -20 -20 -20 -20 -12 -20 8 -20 -3 32 38 20 24 17 9 2 -5 -20 -20 -20 -20 -20 -20 -19 -6 -11 -14 -15 13 -6
-20 -20 -20 -20 -20 -20 -20 -20 -20 -20 -20 -20 -20 -20 -20 -20 -20 -20 -20 -20 -20 -20 -13 -20 -15 12 -4 -3 17 38 41 38 24 22 17 -15 -20 -20 -20 -20 -20 -9 -17 -8 -15 -17 2 -9 -17
-20 -20 -20 -20 -20 -20 -20 -20 -20 -20 -20 -20 -20 -20 -20 -20 -17 -20 -20 -20 -20 -20 -20 -11 8 22 29 23 25 29 39 40 38 31 23 17 6 -20 -20 -19 -20 -20 -20 -20 -20 -19 -19 -8 17
-20 -20 -20 -6 -20 -5 -20 -20 -20 -20 -20 -20 -20 -20 -20 -20 10 -18 3 10 -9 -16 10 7 2 6 18 -2 15 27 24 27 21 24 28 35 22 15 10 -12 -10 -20 -20 1 3 -15 21 28 26
-20 -20 -20 -20 -19 -20 -20 -20 -20 -20 -20 -20 -20 -20 -20 -20 -16 -6 -20 8 11 8 12 14 17 17 9 4 4 15 25 3 12 3 6 12 24 23 23 19 -8 -3 19 26 24 30 30 29 14
-20 -20 -20 -20 -12 1 -12 -20 -20 -20 -20 -20 -20 -20 -20 -20 -20 -7 9 -3 9 7 18 21 17 17 14 19 6 -4 17 -3 -16 -20 7 4 8 8 23 28 31 22 33 33 33 22 7 -3 -18
-20 -20 -20 -20 -20 10 6 -14 -20 -20 -20 -20 -20 -20 -20 -20 -20 -15 -6 5 9 10 2 17 21 15 19 12 1 14 -1 -2 8 -17 -13 -19 5 3 5 18 21 34 29 19 7 7 4 -9 -14
Wind_Speed
9 6 1 4 3 2 4 6 3 1 1 2 4 3 4 0 4 3 4 8 14 19 20 20 22 21 19 19 17 16 16 16 16 15 14 14 13 13 12 12 12 12 12 12 11 11 11 10 11
5 2 3 3 4 4 5 3 2 3 6 14 4 3 3 3 2 2 5 5 14 19 18 19 22 21 20 18 18 17 16 16 16 16 14 14 14 14 13 12 12 12 12 12 11 11 11 11 11
3 3 3 3 3 6 4 4 7 9 9 8 6 3 4 5 2 2 3 9 15 18 17 17 22 21 21 20 18 17 17 16 16 15 15 14 14 14 14 12 12 12 12 12 12 11 11 11 12
3 4 4 2 3 3 1 5 6 9 7 7 5 2 4 5 8 5 2 14 17 17 16 15 21 20 21 20 19 18 17 16 16 15 15 14 14 14 14 13 12 12 12 11 12 12 12 12 15
4 3 4 2 2 4 1 6 4 6 5 6 9 7 11 7 10 2 9 14 18 13 15 17 20 21 21 19 19 19 18 17 16 16 15 15 14 14 14 13 12 12 12 11 12 12 13 14 15
4 2 3 2 3 3 1 6 1 6 4 7 9 9 3 9 14 1 8 13 13 13 16 14 19 20 19 18 17 18 18 18 17 16 16 15 15 14 13 13 13 13 13 13 13 14 13 14 15
5 3 3 2 2 4 2 8 3 3 8 2 7 7 6 14 16 7 4 9 9 13 13 12 13 16 18 17 18 17 18 17 17 16 16 15 15 15 14 13 14 14 13 13 14 13 13 15 16
4 3 3 1 1 4 3 6 4 1 4 7 1 4 4 9 20 6 3 6 7 12 11 12 12 13 13 14 16 17 16 17 16 15 14 13 13 14 14 13 14 14 14 14 14 14 15 16 16
2 4 1 1 1 5 5 7 2 2 4 2 4 4 7 9 14 3 4 6 6 8 8 11 12 11 13 12 12 14 15 15 16 14 15 11 7 9 10 10 11 13 14 13 14 14 15 16 15
5 2 2 2 1 5 6 5 10 5 4 8 8 5 11 6 9 6 7 9 10 8 9 10 10 11 14 10 12 12 10 9 10 10 10 8 8 8 9 11 10 11 13 14 14 14 13 10 6
1 2 2 3 4 3 7 10 4 6 10 7 11 12 11 10 7 7 8 12 12 11 7 11 11 11 13 9 7 5 5 7 8 11 9 8 7 6 5 5 5 5 8 5 7 7 5 7 6
2 2 2 4 3 3 9 7 7 10 15 10 11 12 10 11 9 9 8 4 8 13 12 13 13 12 12 9 8 8 7 7 6 8 11 8 6 6 6 5 6 6 4 6 5 4 7 7 7
2 2 5 7 9 8 8 11 11 15 16 10 9 7 9 9 11 10 10 6 6 12 15 15 14 13 12 12 9 9 9 8 8 8 10 8 7 7 7 6 6 6 5 6 5 5 6 7 7
2 5 10 7 6 5 7 6 1 7 3 9 7 9 9 11 12 9 10 11 7 11 15 17 17 15 14 13 13 9 9 9 9 7 8 9 7 7 7 7 6 6 5 6 6 5 6 6 6
3 6 7 2 1 5 5 5 8 14 6 13 13 11 13 16 13 11 8 12 11 9 12 18 19 17 16 17 13 10 9 9 9 8 9 9 8 9 9 6 6 6 6 9 8 7 6 6 6
4 3 6 3 5 3 4 10 5 9 13 16 20 19 14 15 16 11 11 10 11 8 10 6 14 18 17 14 12 10 10 10 9 8 8 11 10 10 8 7 6 6 6 7 7 7 6 5 5
6 5 3 10 3 3 2 19 16 14 16 20 21 19 14 15 17 14 12 11 11 9 13 15 15 17 18 16 12 11 11 9 8 7 7 10 11 11 8 7 7 7 6 6 7 5 5 6 6
4 5 4 9 5 5 14 20 21 22 12 17 18 18 15 16 17 16 11 10 11 13 11 16 11 8 11 11 10 8 8 8 8 8 7 10 9 11 9 7 8 8 6 6 6 7 5 5 6
3 3 10 13 7 9 6 19 22 19 14 12 12 11 13 16 15 12 10 10 9 11 11 12 12 12 11 2 8 9 9 7 6 7 11 10 8 10 10 8 8 8 7 6 8 7 9 4 3
5 5 7 8 2 8 11 23 17 9 6 5 10 10 10 9 13 12 9 9 10 13 14 13 13 15 12 11 1 2 7 5 7 6 9 9 10 9 9 9 8 8 8 8 6 5 4 3 1
4 4 3 6 11 2 10 8 6 4 4 6 6 7 9 10 14 13 9 10 10 13 17 14 15 17 12 13 8 4 4 5 3 6 6 8 10 9 9 9 8 7 6 7 6 5 4 4 3
4 3 3 9 10 5 7 7 6 5 13 6 10 9 12 14 13 13 14 11 12 13 14 13 14 15 18 16 10 4 4 8 2 6 5 7 9 8 8 7 7 7 6 7 6 5 4 5 5
7 3 7 4 5 6 1 4 10 3 6 12 14 17 15 14 14 14 15 11 11 10 13 14 14 16 16 18 15 6 2 4 4 6 9 9 8 8 9 7 7 7 5 6 7 6 5 3 4
6 5 2 1 1 2 2 2 7 3 3 10 13 15 17 19 21 15 12 8 9 9 12 13 15 14 15 18 20 16 5 5 8 8 8 7 7 7 9 8 7 7 7 7 6 6 7 6 7
3 5 5 7 5 4 4 2 11 9 9 4 11 15 15 18 18 15 11 3 6 13 14 13 14 14 17 17 20 25 14 3 7 9 7 9 7 6 8 9 8 6 7 7 7 7 7 8 6
3 1 5 4 4 9 3 6 6 6 7 6 8 8 11 16 14 15 12 3 5 7 13 14 15 16 19 19 20 21 22 14 12 12 8 6 6 6 8 9 9 9 9 8 8 6 7 6 6
1 1 2 4 3 5 3 6 10 4 6 5 11 10 13 14 15 13 9 8 6 3 8 12 14 15 18 18 17 19 18 14 12 15 15 12 11 9 10 10 10 9 8 9 7 6 6 7 6
3 1 1 1 5 7 5 6 6 6 8 7 10 12 12 12 13 14 10 6 3 5 6 7 11 14 15 17 16 14 11 9 10 11 14 15 13 14 14 10 10 9 8 7 7 6 4 8 5
2 2 4 1 3 3 6 7 6 7 6 7 8 8 9 11 10 12 9 6 4 5 7 9 10 13 14 15 15 15 12 11 10 11 11 13 14 13 15 12 10 9 8 5 8 8 7 8 7
3 5 4 3 5 4 3 10 1 3 5 6 10 8 6 7 8 8 10 6 4 5 6 8 9 12 13 14 15 14 14 13 12 12 12 13 13 12 13 12 11 9 7 6 9 8 7 8 7
Wind_Direction
339 335 13 44 104 61 240 244 315 316 11 30 317 175 216 277 183 212 349 170 161 162 167 170 162 157 152 148 157 150 146 143 138 135 134 130 125 122 116 112 109 106 107 103 96 97 97 98 98
337 343 45 88 125 156 238 262 246 0 312 304 276 272 249 265 14 17 108 215 169 161 164 167 160 155 144 154 154 152 150 144 142 136 132 131 128 124 117 112 108 105 101 100 97 93 96 100 97
341 31 85 115 151 188 220 18 306 316 321 358 353 336 346 348 352 297 258 172 166 163 165 163 155 150 142 153 154 154 151 146 139 135 136 135 129 124 116 114 110 109 106 105 102 99 100 98 107
27 20 49 108 203 258 357 351 327 343 346 27 332 327 340 29 336 310 170 156 162 165 166 169 152 147 145 155 154 154 152 146 142 141 140 133 131 123 121 116 115 111 109 106 105 106 106 104 106
36 55 74 78 268 272 40 347 332 357 341 336 345 328 319 2 343 310 160 160 167 157 163 160 150 145 150 158 156 154 152 147 147 145 139 136 127 126 123 122 120 117 114 113 112 113 108 110 106
53 84 78 206 248 265 335 343 340 12 325 324 359 324 320 15 6 347 166 165 165 162 161 156 150 145 151 158 158 153 152 151 151 147 142 135 134 129 128 125 123 120 116 115 115 114 111 113 106
95 79 163 136 262 306 58 337 46 337 325 318 318 308 297 357 342 307 176 165 165 166 160 154 151 148 152 159 157 154 154 154 149 149 141 139 135 133 130 127 125 119 114 112 110 109 113 118 108
91 88 99 219 197 261 346 347 300 333 298 306 238 286 316 335 331 283 167 177 161 169 163 155 149 152 151 162 155 153 156 150 148 139 135 130 132 131 127 124 124 121 119 120 116 111 113 113 108
100 64 89 224 175 291 314 351 274 265 248 259 243 264 274 325 348 269 179 161 158 165 171 151 151 150 143 158 154 151 151 146 138 125 111 105 113 111 114 111 111 118 115 114 112 110 108 109 103
63 84 215 223 219 262 295 291 312 298 274 270 274 285 294 330 350 351 245 190 195 181 175 152 149 149 145 153 156 162 149 142 130 125 124 122 120 113 100 91 88 94 105 109 110 109 105 101 106
7 174 193 261 259 249 297 291 257 283 280 244 284 296 302 308 323 318 311 230 197 179 176 158 152 149 149 152 146 139 129 133 135 133 132 134 127 121 110 108 102 98 89 97 104 103 94 105 114
355 289 228 268 261 316 286 292 280 236 264 275 283 278 291 293 298 295 271 266 263 183 176 162 156 151 151 151 154 147 146 144 147 146 141 145 138 134 129 126 123 116 114 110 104 102 106 100 103
142 281 299 274 286 265 262 259 266 273 270 278 280 284 278 292 292 290 264 236 256 232 176 171 161 161 159 157 156 152 153 152 151 152 153 151 148 144 140 135 133 123 127 119 113 110 112 109 108
296 278 281 288 278 271 279 273 193 262 248 281 295 283 284 278 271 284 276 254 236 226 198 178 171 163 160 162 164 162 154 150 151 156 160 157 153 145 143 139 135 126 128 125 119 118 115 106 110
312 320 317 290 285 301 322 287 226 264 286 286 287 281 283 280 276 248 250 252 240 207 217 182 172 165 166 167 164 165 162 152 156 159 161 156 156 152 145 137 134 130 126 122 118 109 105 103 99
23 56 346 283 330 277 69 283 268 280 296 288 289 290 277 267 277 260 249 242 236 216 177 207 182 171 167 167 166 165 166 161 159 161 164 161 159 152 147 141 136 136 128 126 119 120 110 105 110
15 298 301 312 314 266 42 290 280 283 287 282 280 283 272 273 275 265 249 243 238 213 207 191 210 185 170 163 165 158 160 163 157 155 166 164 159 157 147 142 136 140 133 131 130 114 116 118 113
307 322 283 273 286 301 290 269 290 296 296 283 282 280 270 268 260 268 254 246 241 220 205 194 170 161 182 165 152 147 151 160 159 156 165 167 161 156 143 140 139 136 132 130 125 119 101 115 119
224 231 265 277 288 314 286 291 294 300 305 298 293 286 278 271 272 269 250 246 252 210 193 174 158 140 115 238 171 155 161 162 162 157 157 160 158 154 146 142 142 136 134 133 126 115 120 107 122
225 261 277 284 224 319 316 300 290 288 273 279 300 304 294 291 294 279 252 244 229 205 196 175 147 143 153 151 67 268 151 159 162 153 153 152 154 155 149 146 146 144 133 136 138 129 122 95 98
244 223 254 273 326 263 326 294 328 300 273 273 288 282 293 298 303 301 286 239 230 205 198 177 162 156 145 131 126 19 67 84 122 151 150 149 152 152 144 145 140 140 134 141 144 136 131 132 81
290 202 266 302 336 300 32 296 298 312 316 312 336 331 323 327 315 297 291 255 225 205 183 165 167 153 144 126 112 134 225 157 148 151 158 133 140 140 132 133 132 130 125 125 126 134 133 122 130
250 299 283 298 287 311 327 266 271 310 314 336 329 334 333 329 316 311 294 258 216 186 161 160 157 159 146 145 121 105 76 83 131 130 132 125 126 130 127 129 121 117 114 113 116 118 109 95 128
311 309 67 109 294 279 226 101 284 280 300 316 322 327 334 333 333 324 305 247 212 149 152 152 154 159 149 138 128 110 49 150 145 145 144 137 131 133 128 126 119 114 110 108 103 102 97 103 95
20 18 344 355 360 262 166 253 255 291 300 264 306 319 330 339 340 339 333 260 157 143 146 154 157 147 144 148 146 129 130 182 166 153 146 137 132 126 127 121 114 104 107 101 103 95 103 95 101
25 38 131 292 296 292 128 231 254 217 286 282 272 293 320 348 346 357 349 341 134 142 135 149 153 148 148 155 147 144 156 171 167 147 134 116 108 110 108 102 105 107 100 97 93 90 73 91 98
251 345 178 266 218 274 260 275 285 235 293 316 356 339 342 349 350 352 2 3 355 146 142 153 149 152 156 152 148 162 166 179 171 152 147 143 127 115 103 99 95 83 88 94 86 90 103 96 79
164 222 340 316 312 297 279 278 250 302 308 315 338 336 333 338 357 353 359 21 39 110 114 126 146 152 154 151 154 155 156 150 142 139 140 130 121 126 110 99 92 83 76 85 114 95 89 97 101
129 235 221 226 233 272 311 279 217 255 294 310 308 310 321 333 354 353 356 28 77 109 127 133 138 143 151 155 153 147 146 143 138 132 132 123 129 127 116 118 114 118 126 140 121 116 112 108 114
174 199 169 142 277 246 255 268 292 275 307 299 296 302 312 332 354 8 359 24 69 104 120 132 146 148 150 153 153 150 139 139 138 137 127 125 123 119 119 117 124 131 127 132 105 118 129 107 88